Theta_e
308 308 308 308 308 308 308 308 308 308 308 308 309 308 309 308 308 308 307 307 307 307 307 307 307 307 309 311 313 314 314 314 313 314 316 317 314 316 318 318 317 316 314 313 315 317 315 314 314 314 316 318 318 320 319 322 330 331 328 323 324 328 328 332 334 327 321 324 326 323 319 318 321 320 316 314 315 317 316 318 319 316 314 312 311 311 312 312
308 308 308 308 308 307 307 307 307 307 307 308 308 308 308 308 308 308 308 307 307 307 307 307 307 307 308 310 313 314 314 314 314 315 316 316 315 316 318 319 317 315 314 313 315 316 317 318 314 315 320 321 320 319 320 322 323 330 331 324 327 331 330 331 331 325 320 318 322 324 321 317 319 320 315 315 320 319 317 318 317 317 316 313 310 309 310 311
308 308 308 308 308 307 307 307 307 307 307 307 307 307 308 308 308 308 308 308 308 307 307 307 307 307 308 310 313 314 316 317 318 320 319 318 318 317 317 319 317 314 314 312 315 315 317 318 313 317 321 320 322 322 323 323 322 331 329 325 332 333 328 328 325 322 319 317 319 322 319 316 318 317 314 316 320 319 318 317 316 318 318 318 313 307 308 309
309 309 309 309 308 308 308 308 307 307 307 307 307 307 307 308 308 308 308 308 308 307 307 307 307 308 308 311 313 314 317 317 318 321 319 317 319 318 319 319 316 314 313 313 317 318 317 316 313 317 319 320 325 324 326 326 323 327 323 325 334 327 323 325 323 322 321 317 318 321 318 317 318 316 315 317 318 317 316 315 316 319 317 319 317 308 306 307
310 310 309 309 309 309 309 308 308 308 307 307 307 307 307 307 307 308 308 308 308 308 308 308 308 308 308 312 314 315 317 313 313 320 318 316 317 318 319 318 315 313 312 313 317 317 315 314 313 317 318 321 324 322 328 329 323 324 323 325 327 322 320 321 323 323 320 318 318 320 317 317 318 315 317 317 317 316 316 317 316 317 317 318 317 309 305 306
311 310 310 310 310 310 310 309 309 309 308 308 308 308 308 308 308 308 308 308 308 308 308 308 308 308 309 313 314 315 315 311 315 319 317 316 315 317 319 317 314 311 311 314 316 314 315 315 315 320 320 320 322 320 325 324 320 323 324 323 322 319 318 319 321 321 319 317 317 318 317 317 317 316 318 318 316 315 316 321 319 317 314 312 312 309 308 309
312 311 311 310 310 310 310 310 310 310 309 309 309 309 309 309 308 309 308 309 308 308 308 309 309 308 310 313 316 319 318 315 316 316 316 315 315 316 317 315 312 310 311 314 314 314 318 318 317 322 321 320 323 322 320 319 319 323 323 323 321 319 319 319 318 319 319 317 317 316 315 315 317 317 317 317 315 314 314 319 320 315 309 308 313 312 312 310
312 312 311 311 311 311 310 311 310 310 310 309 310 309 310 310 310 309 309 309 309 309 308 308 310 310 311 314 319 324 323 319 315 315 317 316 316 316 315 313 310 310 311 313 313 315 318 319 319 320 320 321 321 321 319 317 320 323 323 322 320 319 319 319 317 317 318 317 316 315 315 316 316 315 315 315 315 314 314 315 317 315 311 312 315 314 312 310
313 312 312 311 310 310 310 311 311 310 310 309 309 309 310 309 310 309 309 310 309 309 309 308 309 311 313 315 317 320 320 317 316 318 319 317 316 315 314 312 310 310 311 312 313 314 316 320 321 319 320 322 319 319 319 318 322 323 322 321 319 317 318 317 316 316 316 316 315 315 316 315 315 315 314 315 314 313 315 315 315 314 315 315 314 313 311 311
314 314 313 310 308 310 312 312 311 310 310 309 309 308 308 308 308 308 308 308 309 309 309 308 309 311 314 314 315 316 316 317 319 320 320 318 315 313 313 312 310 310 310 312 312 312 316 318 319 318 318 320 317 317 318 318 320 319 318 319 317 315 316 315 315 315 314 315 316 315 316 315 314 314 314 315 315 315 316 316 314 313 314 313 312 312 310 310
315 315 313 310 310 313 313 312 312 311 311 310 309 309 309 308 308 307 306 306 307 308 309 309 309 311 314 315 316 316 315 317 318 318 319 318 315 313 313 312 310 310 311 312 312 312 314 315 315 315 317 317 316 317 317 317 316 315 315 316 317 315 315 314 314 314 313 315 317 315 314 315 313 313 314 315 315 316 316 317 315 314 314 312 312 311 310 310
316 315 313 312 313 314 313 313 312 311 311 311 310 310 310 310 309 308 307 306 306 306 308 309 309 311 315 317 317 315 314 315 316 316 316 316 315 313 312 312 312 311 311 311 312 313 313 314 315 316 318 316 315 316 316 314 314 314 314 316 316 315 315 314 314 314 314 315 317 315 315 315 314 315 315 313 314 314 314 316 315 314 313 312 312 311 311 309
316 315 314 315 315 314 314 312 311 311 312 311 311 311 311 311 311 309 308 307 306 306 307 308 309 311 315 319 318 314 313 314 315 315 315 315 313 313 312 312 313 313 312 311 313 315 315 315 315 317 318 316 317 316 313 313 314 315 314 315 315 315 316 315 315 315 314 315 316 315 314 316 316 315 315 314 313 313 314 315 314 313 312 311 311 311 311 309
315 314 315 315 314 314 312 311 310 311 311 311 311 311 312 311 311 310 309 309 307 305 307 309 310 312 316 319 316 314 315 314 315 315 315 314 313 313 313 312 313 313 312 312 314 316 316 315 315 315 314 315 317 314 314 317 317 315 314 315 316 315 317 315 315 316 315 315 315 315 314 315 316 315 315 314 313 313 315 315 313 313 312 311 311 311 311 310
314 314 314 315 314 312 311 310 310 311 311 310 310 311 311 311 311 311 310 309 308 306 308 311 312 314 317 319 315 314 316 314 315 315 315 314 313 313 313 313 313 312 311 311 313 314 314 314 313 315 315 314 314 314 319 323 322 320 315 316 318 317 316 314 314 315 315 314 312 314 317 316 315 315 316 314 313 314 315 315 314 312 312 311 311 310 310 310
315 314 314 314 313 311 310 310 310 310 310 309 309 310 310 310 310 310 310 309 308 307 308 312 314 315 316 316 315 315 315 315 316 315 315 314 313 313 313 312 312 312 312 312 312 312 313 313 313 315 316 313 314 317 320 321 324 324 316 315 319 317 315 315 317 317 315 314 312 313 317 317 316 316 316 314 313 314 314 314 313 311 311 311 310 310 310 310
315 314 315 314 313 311 311 310 310 310 309 308 309 309 309 309 309 309 310 310 309 309 310 314 315 314 314 312 313 315 314 314 316 315 315 313 312 313 313 312 312 311 311 311 312 312 312 313 312 315 317 315 318 320 318 317 320 319 316 316 318 316 314 315 319 318 315 314 314 313 314 315 316 316 317 315 313 313 314 314 313 311 310 310 311 310 310 310
315 315 315 315 314 313 312 311 311 310 310 309 308 308 309 309 310 311 312 312 311 310 311 316 314 312 314 314 314 315 314 314 314 315 314 313 312 314 314 312 311 311 312 312 312 313 313 315 316 317 319 317 316 317 317 317 315 315 317 319 319 317 315 315 316 316 314 314 315 314 313 313 314 314 314 314 313 313 313 314 313 311 310 311 311 311 311 311
315 315 316 316 315 315 315 313 312 311 310 309 309 310 311 313 314 313 313 315 315 313 312 315 314 313 315 316 315 315 315 314 315 314 313 313 314 315 314 312 313 313 314 314 314 315 315 318 320 318 317 315 314 314 314 315 314 314 316 317 319 317 314 315 314 314 315 314 314 315 313 313 312 312 313 313 313 312 312 312 311 311 311 311 311 311 312 312
315 315 316 317 317 317 317 314 312 311 310 310 310 313 317 320 320 317 315 317 317 316 315 315 316 316 315 316 317 316 316 315 315 316 313 312 314 314 314 313 315 316 316 319 319 316 315 318 320 318 316 314 314 314 313 313 313 313 314 315 316 315 313 313 312 313 314 314 314 315 314 313 313 313 313 313 313 313 313 312 312 311 311 311 311 312 312 312
315 316 317 318 318 318 319 315 313 312 310 311 311 314 319 317 316 316 315 317 313 310 314 314 313 315 314 314 315 316 318 317 315 314 312 312 314 315 315 314 316 317 317 322 321 315 313 316 318 316 314 313 314 315 313 313 313 313 314 314 314 314 313 312 312 313 313 313 313 314 314 313 313 313 312 313 313 313 313 312 312 312 311 311 311 311 312 312
315 316 316 317 318 318 319 317 314 314 312 311 310 311 311 308 309 311 309 314 314 307 310 312 310 311 312 311 313 314 316 316 315 315 313 311 312 315 315 315 317 318 317 318 317 315 315 316 315 314 313 314 314 315 314 313 314 314 314 314 314 314 313 312 313 314 312 313 316 316 315 313 313 313 312 312 313 313 313 313 313 313 312 312 311 311 311 312
316 315 315 316 317 317 319 318 317 316 313 312 310 308 307 306 308 308 308 315 318 313 312 312 311 311 311 310 311 313 314 314 314 316 314 311 312 314 314 314 316 317 317 317 315 317 318 317 314 312 313 314 314 315 315 314 313 315 315 315 315 313 314 314 315 317 314 313 317 317 314 312 312 312 312 311 312 312 312 312 312 312 312 313 312 313 312 312
316 316 316 316 316 316 318 318 318 317 314 312 310 308 308 306 306 308 311 315 318 316 314 311 309 310 312 310 310 312 313 313 313 315 313 311 312 313 313 314 314 315 316 316 315 315 315 317 317 314 313 314 315 315 315 315 314 315 315 315 314 314 314 314 314 317 315 313 316 315 312 313 313 313 312 311 311 311 312 311 312 312 312 313 312 313 313 313
317 317 317 316 316 316 317 317 318 318 315 312 310 309 309 307 306 307 310 314 317 317 314 309 309 310 310 310 311 313 312 312 314 314 311 311 312 312 312 312 313 314 314 313 315 314 312 315 317 316 316 316 315 315 317 318 315 314 316 316 315 314 314 315 315 315 314 316 316 315 315 315 316 316 314 313 313 313 312 312 312 312 312 312 312 312 312 313
319 317 317 317 316 316 317 318 317 318 316 312 311 310 308 307 307 307 309 314 318 319 315 311 310 310 310 310 312 312 312 312 312 312 311 311 311 312 312 312 312 313 313 313 313 312 313 314 315 317 320 319 317 317 318 318 315 314 319 320 316 315 314 316 315 315 318 320 317 316 317 317 317 317 317 317 316 314 314 314 313 312 312 312 312 312 312 312
323 320 317 317 317 316 318 319 318 318 318 316 312 309 307 308 307 306 310 318 322 319 316 313 311 311 311 311 310 312 315 314 311 311 311 310 311 312 311 312 312 311 312 314 313 313 314 313 314 316 318 320 319 317 317 316 315 316 321 325 322 319 318 318 317 318 320 319 317 318 320 318 316 316 317 317 316 315 314 315 314 312 311 311 312 311 312 312
325 323 320 318 317 316 317 317 317 317 319 318 311 307 307 307 307 308 314 324 326 319 316 314 310 311 312 310 310 311 312 311 312 312 308 308 310 312 312 312 312 312 314 314 313 315 315 315 317 316 315 318 317 315 317 316 316 318 321 322 322 321 321 320 320 321 321 317 316 319 318 318 317 316 318 315 314 315 314 314 314 312 313 312 312 311 311 312
325 324 323 320 317 317 316 316 316 317 320 318 312 308 308 307 307 311 320 326 325 316 314 313 310 311 313 311 312 313 310 310 312 311 308 309 310 310 312 312 310 312 314 314 313 313 315 315 316 317 316 315 314 317 320 318 316 318 318 319 324 327 325 322 320 320 322 320 318 319 318 317 317 316 317 314 313 316 313 313 313 312 314 313 313 313 313 313
324 323 324 322 318 317 316 316 317 319 320 318 312 307 308 310 309 315 326 326 322 317 313 311 311 312 313 313 315 314 312 311 311 311 311 311 310 310 311 310 311 316 317 315 314 314 313 311 313 317 317 315 317 317 314 316 316 314 315 319 325 328 326 327 326 321 320 319 318 322 319 316 317 318 317 315 316 316 312 313 314 312 314 314 314 314 313 314
323 323 323 321 319 318 317 317 318 320 319 316 313 310 314 318 315 322 331 325 321 321 313 311 313 313 314 316 317 315 312 312 311 312 313 311 311 313 311 310 313 320 321 316 314 315 312 310 314 319 320 318 317 313 312 315 315 314 318 321 323 326 325 328 328 322 318 318 320 323 319 315 316 317 317 317 318 318 313 313 315 315 314 313 314 313 313 314
322 322 322 321 320 319 319 319 319 320 318 315 315 315 321 326 322 325 330 325 326 324 315 315 316 314 316 314 317 319 314 313 312 312 315 315 315 315 314 315 316 318 321 320 318 318 316 313 315 316 317 318 316 316 318 318 314 315 320 320 319 322 322 323 325 321 320 320 320 318 316 314 315 317 316 315 317 319 316 314 314 316 318 318 318 316 314 314
321 321 321 321 320 319 319 319 319 319 317 315 317 319 323 328 327 327 328 327 330 323 315 319 317 316 317 314 321 323 314 315 315 311 314 315 314 316 315 317 318 316 318 320 320 322 320 316 314 312 313 316 316 316 318 318 316 315 318 319 319 320 319 321 325 323 319 320 318 314 315 316 316 320 319 314 313 316 317 315 314 315 319 322 320 317 317 316
318 319 320 321 320 320 320 319 318 318 316 315 319 323 323 327 328 327 327 326 326 321 318 320 317 317 316 315 324 323 314 318 317 311 313 313 312 318 319 315 313 315 316 316 317 321 319 318 316 314 317 317 315 314 316 321 319 314 316 320 318 322 325 325 326 323 318 323 321 314 317 321 318 319 321 317 315 317 317 317 314 312 313 316 316 316 317 317
317 317 319 319 320 320 320 319 318 317 316 316 320 323 324 327 327 327 328 326 323 321 321 319 318 318 319 320 325 322 315 318 318 313 315 315 315 322 325 317 312 313 315 315 318 320 317 319 318 314 317 317 314 314 315 320 320 314 318 320 315 320 325 320 321 321 316 321 321 315 320 324 318 316 319 319 318 319 317 315 314 314 315 316 315 316 316 316
315 316 318 318 319 320 319 319 318 316 316 318 321 322 322 326 328 328 328 324 320 321 322 321 320 320 322 324 325 322 316 314 316 315 315 316 317 321 322 319 313 311 312 314 319 320 316 320 320 313 314 315 314 314 315 317 318 314 316 318 315 318 319 315 321 322 315 316 317 316 319 321 317 316 316 314 315 316 316 315 315 316 316 315 314 314 313 315
313 316 317 318 318 320 319 318 317 315 316 318 321 322 322 323 327 328 326 321 318 321 324 324 323 322 322 323 325 325 320 317 317 316 317 318 318 318 319 319 315 311 311 312 318 321 317 317 319 316 316 315 311 312 315 315 315 316 318 317 314 316 318 317 321 322 317 316 318 318 316 315 316 319 315 312 314 315 316 316 315 314 313 313 315 314 312 315
312 315 317 317 317 318 319 318 315 314 315 318 321 323 322 322 323 323 322 319 319 322 324 325 325 324 323 323 326 326 323 322 320 318 319 319 318 319 319 318 315 312 311 310 315 320 317 314 318 319 316 316 313 313 316 313 311 315 317 316 315 318 320 319 319 319 317 317 319 319 316 314 314 317 315 314 317 316 315 316 315 313 313 315 319 319 317 319
311 315 316 316 316 317 318 317 314 314 316 319 321 322 322 321 321 321 320 319 319 321 322 324 325 325 324 324 324 324 322 322 321 320 320 320 318 319 317 316 316 313 311 311 312 317 317 315 318 320 316 315 313 314 319 317 313 312 312 313 315 316 319 320 320 320 318 316 318 318 317 316 317 321 319 315 317 317 315 317 317 317 319 322 323 324 323 324
312 315 317 317 317 317 317 314 314 315 318 320 320 321 321 320 321 322 319 317 319 320 320 321 323 323 323 323 320 320 321 321 321 320 322 322 321 319 316 315 315 314 314 314 314 315 317 317 317 317 316 314 313 316 321 321 318 314 314 315 314 313 318 319 316 318 317 315 316 317 317 316 317 321 320 315 317 318 318 316 315 317 320 322 324 324 326 328
313 315 316 317 317 317 315 314 315 316 318 320 320 319 319 318 320 320 318 316 319 320 318 319 323 323 322 322 321 319 320 321 320 319 320 322 322 322 319 314 312 315 317 319 318 316 318 318 316 315 315 314 315 317 320 321 319 316 314 315 314 313 317 317 316 317 317 315 316 316 317 317 314 315 316 316 316 317 318 315 313 318 322 324 329 330 331 333
312 314 315 316 316 315 314 315 316 316 318 319 319 319 318 317 318 318 317 317 317 317 317 318 321 322 320 320 321 320 320 321 321 320 319 319 320 322 320 316 315 317 319 319 318 316 317 317 315 316 316 316 316 316 317 318 317 315 314 315 314 314 314 316 317 317 316 316 317 317 316 317 314 313 315 316 314 314 317 315 314 320 322 325 329 328 328 330
312 313 314 315 315 314 315 318 317 316 317 316 316 318 317 317 319 318 317 317 317 316 317 318 318 319 319 319 319 320 320 320 320 321 320 319 318 317 316 317 317 317 319 320 319 318 317 316 316 317 318 318 318 317 317 314 312 313 315 314 314 314 314 315 315 316 317 317 318 318 318 317 316 316 315 313 313 313 314 313 312 314 315 317 320 319 318 320
309 311 312 313 314 313 316 319 318 316 316 314 314 315 315 315 317 317 317 317 317 317 318 318 318 318 318 318 318 319 320 319 319 320 320 319 319 318 316 315 315 315 318 320 322 322 319 318 319 319 319 320 321 320 318 314 311 313 317 316 314 314 315 314 315 316 317 316 316 317 317 317 316 316 314 313 313 312 312 312 311 311 311 312 312 312 312 311
306 309 311 312 312 312 315 318 317 316 316 315 315 315 314 314 315 315 315 315 316 317 317 317 318 318 318 318 318 318 319 319 319 319 320 320 321 320 317 316 316 316 317 319 322 322 320 320 321 320 320 321 320 320 321 320 315 314 317 317 315 315 315 314 314 315 315 315 316 316 316 315 314 314 313 313 312 312 312 312 312 311 312 312 311 311 311 310
306 308 309 311 312 312 313 315 315 316 316 315 316 315 315 315 315 315 315 314 315 315 315 317 317 317 318 318 318 317 318 318 318 319 319 320 320 319 317 316 316 316 317 319 319 317 317 319 320 319 319 320 318 317 321 322 317 314 315 315 314 314 315 314 314 315 315 315 315 315 315 315 314 313 313 312 312 312 312 312 312 311 312 313 312 311 310 310
304 305 307 310 312 313 314 314 315 316 316 315 316 315 315 315 315 314 314 314 315 314 314 315 315 316 317 317 317 317 317 317 317 317 317 318 319 318 317 316 315 315 316 315 314 314 315 316 318 318 317 317 318 317 317 318 316 315 316 315 314 314 314 314 314 313 313 315 315 315 315 315 315 313 312 312 312 312 312 312 312 312 312 313 312 311 310 309
302 303 305 307 309 311 313 313 313 314 314 314 314 313 314 314 314 314 314 314 314 313 314 315 314 315 315 314 315 315 316 317 317 316 315 314 313 313 313 314 314 314 314 312 310 312 314 314 315 316 316 316 316 316 317 317 316 316 316 315 315 315 315 314 314 313 313 314 314 314 314 315 314 313 312 312 312 312 312 312 312 312 312 312 311 310 309 309
300 302 303 304 304 305 306 306 306 308 310 311 312 313 313 313 312 313 313 313 313 312 313 315 313 311 309 308 309 311 313 314 313 312 310 307 306 307 309 312 313 312 311 311 310 310 313 313 313 314 314 314 314 315 314 315 315 315 315 316 316 315 316 315 315 314 314 314 314 314 314 314 313 312 312 312 311 312 312 311 312 311 311 311 310 310 309 308
299 300 301 301 301 301 301 301 302 304 306 308 310 311 311 312 312 312 311 311 312 312 313 312 308 305 305 305 306 307 308 307 306 306 304 302 303 305 306 308 310 308 307 309 310 310 311 313 314 314 314 314 314 314 313 313 314 314 314 314 314 314 315 315 315 314 315 315 314 314 314 314 313 312 311 311 311 311 311 311 311 310 311 311 309 308 308 306
297 298 299 299 299 300 301 302 303 303 304 306 308 309 310 310 310 309 309 309 311 310 309 306 303 303 303 303 304 305 304 302 301 302 302 302 302 303 304 304 305 305 306 308 309 309 310 311 312 313 314 315 314 314 314 313 313 313 313 313 314 314 314 314 314 314 315 315 315 315 315 314 313 311 311 311 311 311 311 311 311 310 309 308 306 304 303 302
296 296 298 299 298 298 300 302 302 302 303 304 304 306 308 307 305 305 306 307 308 306 303 301 301 302 302 303 304 303 301 299 299 300 300 301 302 302 302 303 304 305 307 308 308 309 310 311 312 313 314 314 314 314 314 314 314 314 314 313 313 313 313 313 314 313 314 314 315 315 315 313 311 310 309 309 308 308 309 308 307 306 304 302 301 301 301 301
Wind_Speed
12 12 12 12 12 12 12 12 11 11 10 10 10 10 10 10 10 10 11 11 11 11 11 11 12 12 9 8 8 7 7 7 9 9 10 12 11 8 6 5 5 7 7 6 8 8 5 4 7 6 3 1 0 1 1 1 2 3 3 2 3 3 4 5 6 5 3 3 5 4 4 7 5 4 1 2 2 3 3 4 4 5 2 1 1 3 13 27
13 13 13 13 13 13 13 12 12 12 11 11 10 10 10 10 10 10 10 11 12 12 12 12 13 12 10 9 8 7 7 7 8 10 13 14 13 12 10 7 7 8 8 8 10 10 7 3 6 5 3 1 1 1 1 1 2 2 3 2 4 6 6 5 6 4 3 4 6 5 4 6 7 4 1 2 6 5 5 6 3 6 7 1 3 11 21 29
14 14 14 14 14 14 14 14 13 13 12 12 11 11 11 10 10 10 10 11 12 13 13 14 14 13 10 9 8 8 7 5 5 7 7 6 7 12 12 11 9 9 9 9 9 10 7 4 7 7 3 1 2 1 1 1 2 2 3 2 7 7 6 5 6 7 6 5 4 6 3 4 7 3 2 3 8 8 8 8 4 7 12 7 4 11 20 25
15 15 15 15 15 15 15 15 15 15 14 13 12 12 11 11 10 10 10 11 12 12 13 14 15 13 10 8 7 7 5 3 3 3 3 5 3 3 10 12 11 10 9 8 8 8 7 4 6 5 3 1 3 1 2 3 2 2 4 5 7 5 4 8 8 9 7 5 4 3 1 3 6 3 3 3 5 11 10 9 10 11 14 9 7 10 17 20
15 15 15 15 15 16 16 16 16 16 16 15 14 13 12 12 11 11 10 11 11 12 13 13 14 13 9 7 6 6 4 4 2 3 2 4 5 1 7 11 12 11 9 10 9 8 7 4 4 3 2 2 2 2 3 6 3 1 5 8 7 4 4 9 7 7 6 3 3 2 3 5 3 2 4 6 7 14 7 7 12 13 13 10 11 12 14 15
15 15 15 15 15 15 16 16 16 17 17 17 16 15 14 13 13 12 11 11 12 12 13 13 14 12 8 6 4 4 2 1 4 4 5 5 5 3 7 11 12 11 11 12 9 7 6 3 3 2 1 1 3 4 5 4 4 3 6 6 7 6 7 8 4 4 2 1 5 4 4 2 2 5 5 8 14 18 8 7 11 13 14 11 12 13 13 14
16 16 15 15 15 15 15 16 16 17 17 17 17 17 16 15 15 14 13 12 12 12 12 13 14 11 6 4 3 3 2 5 9 7 10 7 4 4 7 11 12 11 12 12 10 6 4 4 3 4 3 1 3 6 5 2 4 5 6 5 7 8 9 10 6 5 3 5 8 3 4 3 6 8 2 7 19 21 11 5 8 10 11 8 10 13 15 17
17 17 16 15 15 15 15 16 16 16 17 17 17 17 17 16 16 16 15 14 13 13 13 12 13 9 5 2 1 3 1 8 12 9 10 7 5 6 8 11 12 12 14 15 13 8 5 5 5 4 2 4 4 4 4 2 2 6 7 5 5 5 8 9 6 7 7 7 6 3 8 8 10 5 4 15 24 19 9 7 9 8 6 7 10 14 15 15
18 18 17 16 16 16 16 16 16 16 16 16 17 16 16 16 16 16 16 16 14 13 13 12 11 6 4 1 3 3 4 7 9 8 8 7 7 8 10 12 14 15 14 14 14 10 6 6 6 5 4 4 4 4 3 1 4 7 7 5 4 6 8 7 7 9 7 5 3 4 13 12 7 3 8 22 25 15 7 9 11 8 8 9 10 13 14 15
18 20 19 17 16 17 17 17 17 17 16 16 16 16 16 15 15 15 15 16 15 13 13 11 9 5 4 1 4 2 7 6 6 8 8 8 10 11 13 13 14 16 14 11 12 12 8 7 6 5 4 2 3 4 3 4 4 4 4 6 7 8 9 6 7 9 4 4 6 7 16 13 4 2 9 21 15 5 6 9 9 8 10 12 11 11 12 13
17 20 20 18 18 19 18 19 18 17 16 16 15 15 15 15 14 14 14 15 15 12 12 10 8 5 4 2 4 5 7 6 7 8 8 11 12 13 14 15 14 17 15 9 11 15 11 9 7 5 2 2 2 3 3 5 2 2 2 7 10 7 9 10 9 8 2 4 8 10 14 10 1 4 13 22 10 2 4 8 7 8 11 11 11 11 9 11
16 19 20 19 21 21 21 21 19 17 17 16 16 15 14 14 13 13 14 15 15 12 11 9 7 6 3 1 6 12 12 10 11 10 10 12 14 14 13 15 15 16 16 10 9 13 11 8 8 5 4 2 1 2 3 4 0 2 2 6 14 7 10 17 10 6 5 4 6 8 7 7 4 11 19 22 11 2 6 10 10 9 10 10 10 10 8 11
16 18 19 20 21 21 22 22 20 18 18 17 17 16 15 15 14 14 14 15 15 12 11 9 7 6 3 2 8 14 18 17 15 14 14 14 14 14 14 16 16 14 15 11 7 7 7 8 9 6 3 3 2 2 1 1 1 4 2 1 10 7 10 14 2 2 5 4 6 8 4 9 9 16 20 17 10 5 8 12 13 11 10 9 9 9 9 12
16 18 19 21 21 21 22 22 20 19 19 20 19 18 17 15 14 13 14 16 15 12 9 6 5 6 4 5 8 9 15 16 16 18 17 16 14 13 14 16 15 14 13 10 6 3 4 6 6 3 1 3 3 4 3 4 2 3 1 1 3 2 10 10 4 5 3 3 7 8 4 11 12 15 16 12 7 6 9 14 14 13 10 9 9 9 11 11
16 19 19 20 20 20 21 20 20 20 20 21 21 21 19 16 15 14 15 16 14 10 6 3 7 7 2 7 9 8 11 12 17 22 20 18 16 11 12 15 12 10 9 6 4 2 3 4 4 2 2 1 1 3 3 4 3 1 1 4 2 4 9 12 3 6 7 4 5 7 4 10 14 15 13 7 5 8 10 14 13 13 12 10 9 9 11 12
16 17 17 18 18 20 20 19 19 20 21 22 23 22 19 17 16 15 15 14 12 9 5 4 9 7 1 5 4 5 9 11 15 19 18 19 17 11 9 11 8 5 5 3 2 3 4 4 2 2 1 2 2 2 2 4 5 2 3 6 5 5 4 8 8 6 9 3 3 7 6 7 11 13 10 4 5 9 9 12 13 13 13 11 10 9 10 11
14 14 15 16 17 19 19 19 20 20 22 23 23 22 19 17 15 13 10 7 4 4 7 4 7 5 2 4 3 5 9 14 15 13 16 18 17 12 7 5 4 4 5 4 4 4 2 2 1 0 1 2 2 5 2 3 7 4 2 5 6 6 4 3 9 6 5 6 6 10 9 11 14 14 11 5 5 7 7 11 13 12 11 9 9 10 11 11
12 12 13 14 16 17 18 19 20 20 21 22 22 21 18 11 7 5 2 7 7 7 5 2 4 3 4 5 5 5 4 9 11 10 15 16 14 12 7 4 5 7 6 4 2 2 2 1 2 0 2 4 3 5 4 8 9 6 4 4 4 5 6 7 9 4 2 5 8 8 10 15 18 16 15 11 6 6 9 11 11 11 11 10 10 11 12 12
10 11 12 14 15 16 18 19 18 19 21 23 20 14 8 3 4 5 6 8 7 5 2 3 4 3 4 6 6 5 3 5 7 8 13 13 11 11 6 4 6 7 5 1 2 2 2 2 4 2 5 9 7 7 11 14 12 9 6 5 4 6 7 8 12 8 3 6 8 10 13 15 17 18 18 16 11 11 13 11 10 12 12 11 11 12 14 15
9 11 12 13 14 16 20 19 16 18 22 24 20 9 2 5 4 3 3 0 4 4 2 5 8 4 5 4 3 4 4 6 6 6 11 13 11 10 4 3 5 4 3 5 4 3 4 4 3 7 11 12 9 11 16 16 11 7 5 6 7 8 9 10 14 11 5 5 9 12 16 17 16 18 18 15 11 11 14 14 14 14 13 13 14 16 17 17
8 10 10 13 14 16 21 18 14 19 21 19 16 6 3 2 1 2 4 5 10 12 8 9 11 10 11 7 5 7 3 3 4 3 10 14 13 10 3 2 5 2 4 6 3 0 3 6 9 14 16 13 9 11 13 12 9 9 7 8 9 8 12 13 13 14 5 5 9 11 15 18 16 16 15 13 12 13 15 16 17 17 14 12 14 18 19 16
8 9 9 11 13 15 20 17 13 18 19 15 14 8 3 1 1 0 1 3 10 11 10 12 11 11 16 17 13 6 1 4 6 2 10 12 9 7 3 5 6 4 4 4 1 1 3 6 14 18 13 8 5 6 8 9 9 8 6 7 8 7 11 12 11 14 6 4 8 11 14 16 14 15 14 13 14 16 16 17 18 17 13 13 14 17 18 16
9 10 10 10 12 13 17 16 11 17 17 12 13 7 2 3 2 2 1 1 8 7 7 9 9 8 14 18 15 8 6 9 7 5 13 13 5 4 4 6 6 3 5 7 7 6 5 8 16 15 8 6 7 5 6 6 6 7 6 6 8 7 8 9 7 8 5 3 6 9 12 13 11 12 12 14 17 17 16 17 16 14 13 16 17 16 16 18
11 11 10 10 11 11 14 15 9 15 15 8 11 8 5 5 1 1 1 2 5 6 7 8 7 6 9 10 9 11 8 7 5 5 14 15 4 2 4 6 5 3 6 12 13 13 11 8 9 10 8 10 11 8 6 5 7 9 9 7 11 12 12 12 7 6 6 5 5 7 12 12 9 12 12 12 15 15 14 15 15 14 15 16 17 17 17 19
12 12 11 11 11 10 13 12 8 14 11 3 7 8 7 5 1 1 2 2 4 6 6 5 4 5 7 4 7 10 3 4 5 4 14 17 8 4 3 4 4 7 11 11 11 12 12 7 4 6 8 10 11 9 7 7 10 9 8 13 18 17 14 14 9 8 6 6 3 2 9 10 6 10 11 8 9 11 10 12 15 16 16 14 15 18 18 19
13 13 12 11 11 10 11 7 8 15 7 2 6 8 6 5 2 0 1 3 4 5 2 2 3 2 4 3 6 7 2 4 3 3 10 12 9 5 2 2 2 6 8 6 5 5 7 7 7 8 9 10 9 7 8 11 9 10 7 14 18 14 11 11 9 4 3 6 3 3 2 10 5 5 8 8 9 11 10 11 15 16 14 12 14 17 16 16
13 14 13 12 10 9 6 4 9 13 4 2 8 7 5 6 3 0 1 3 5 3 2 1 0 1 2 1 2 6 3 5 2 4 3 2 2 1 2 5 2 3 4 2 3 3 4 5 7 9 8 7 7 8 10 12 8 8 4 10 12 10 8 7 5 5 4 4 4 3 4 8 12 6 10 13 12 12 12 13 15 15 14 14 15 15 15 15
13 13 13 13 12 9 6 6 9 8 3 6 9 6 4 4 1 2 3 3 4 1 2 2 0 1 1 2 1 4 2 3 3 2 3 3 1 1 3 6 4 3 2 4 6 4 4 4 8 9 6 5 8 10 9 13 9 7 3 6 6 6 6 5 5 4 1 5 5 4 6 3 14 7 8 11 11 10 13 17 17 15 15 15 15 14 15 15
15 14 13 13 12 10 9 8 8 5 6 7 8 6 4 3 1 4 4 2 3 2 1 1 0 2 3 1 1 1 1 2 2 3 3 2 1 3 3 5 3 4 4 5 8 6 1 3 6 8 6 7 9 6 7 13 10 4 5 4 4 3 2 5 3 2 2 5 6 5 6 3 13 7 4 4 6 9 13 14 14 14 14 14 12 12 14 13
17 16 16 13 10 10 9 10 12 7 5 6 5 7 6 3 0 3 2 4 1 1 1 1 1 1 3 3 2 4 1 2 0 1 3 1 2 3 2 2 3 3 5 3 7 9 4 1 3 5 5 6 5 1 3 7 5 1 5 4 6 5 5 4 1 4 2 8 6 9 11 7 8 6 4 4 5 7 9 8 10 11 12 12 11 11 13 12
15 15 17 14 12 13 8 7 10 6 5 5 3 7 5 2 2 2 7 3 2 2 0 0 1 2 3 3 2 3 1 2 1 2 0 1 2 4 1 1 2 2 3 4 7 8 5 2 3 4 3 5 5 2 1 1 2 3 3 3 4 5 4 5 4 4 1 9 6 11 12 10 8 6 3 5 5 4 6 9 10 12 12 13 11 10 12 12
16 15 16 17 16 16 11 6 5 5 8 5 3 5 3 2 1 6 5 3 2 3 1 1 1 2 1 2 1 3 2 2 1 4 3 3 2 2 3 5 4 1 4 4 4 5 4 6 6 2 2 6 6 2 3 5 2 4 4 3 0 4 3 3 4 0 4 8 6 8 7 6 10 8 5 9 10 7 9 10 12 12 12 12 11 10 10 10
14 14 15 18 18 18 17 14 8 6 8 5 4 4 4 2 5 5 2 2 2 2 1 2 1 3 4 2 3 4 2 3 3 3 2 3 2 3 5 5 6 2 4 4 2 4 4 5 4 4 3 5 9 6 3 2 3 6 5 5 5 3 2 3 4 3 5 7 4 4 5 5 7 5 9 14 14 10 9 10 12 11 10 10 10 8 9 10
12 12 13 17 18 19 19 18 14 11 9 7 4 4 3 5 5 2 3 5 4 3 1 1 3 2 3 2 5 4 2 5 4 4 2 3 2 3 4 5 6 3 2 2 2 2 4 8 4 8 3 6 11 12 9 4 4 6 5 5 5 6 5 4 4 6 7 5 4 1 4 5 4 3 9 12 9 6 5 8 8 8 8 9 8 8 10 11
10 10 11 14 18 20 20 20 18 14 12 8 4 3 4 7 4 1 3 4 2 4 5 3 3 0 3 3 4 4 5 5 2 4 3 3 3 4 3 5 8 6 3 2 3 3 4 10 6 3 2 9 12 11 8 6 1 3 3 4 5 6 6 4 6 6 4 3 4 3 4 6 5 6 7 7 8 7 6 7 6 8 10 9 9 11 11 10
8 7 8 13 18 19 21 22 20 18 15 7 3 3 7 7 3 3 3 2 2 2 3 5 1 2 5 3 3 4 3 3 1 2 3 3 3 5 5 5 9 11 8 5 3 2 4 7 3 0 2 5 6 5 5 5 3 2 3 3 5 5 6 4 6 2 0 4 5 4 7 6 4 8 8 5 8 9 8 8 8 11 11 8 9 10 9 8
7 6 6 12 16 16 18 23 24 22 13 5 4 7 5 4 4 5 3 1 1 2 3 3 3 3 4 3 2 3 2 2 2 2 2 2 2 4 6 4 6 14 15 10 4 4 6 7 3 4 4 4 2 2 2 1 3 5 3 6 3 2 2 3 2 2 2 8 5 5 13 9 4 8 5 3 5 8 8 8 7 8 9 7 7 8 7 7
7 5 7 12 17 15 17 24 26 20 7 3 8 10 5 3 4 4 3 1 1 1 2 3 4 2 3 4 4 2 2 3 2 3 3 3 3 4 5 4 3 7 12 9 4 3 3 6 5 2 2 3 3 2 3 4 3 5 3 2 3 1 3 2 3 3 6 10 5 7 15 11 6 8 5 4 8 11 9 7 5 7 8 6 6 8 8 7
5 4 5 9 14 16 21 26 24 12 3 4 9 9 4 3 3 4 3 2 1 1 3 5 4 3 4 5 5 3 4 4 3 3 3 3 4 2 2 1 1 1 2 4 3 3 2 2 5 2 1 3 3 1 3 2 2 1 2 3 1 3 4 3 3 3 5 9 7 8 10 8 6 6 5 9 11 10 8 5 5 7 7 6 6 7 7 6
3 3 3 4 9 16 24 24 15 5 4 5 7 6 3 2 3 4 5 5 3 2 4 5 5 6 6 5 4 3 2 2 2 2 3 2 3 3 2 1 2 2 3 3 3 2 2 2 6 3 3 2 2 3 6 5 3 2 3 3 3 3 2 1 3 2 3 7 7 7 8 7 6 4 5 10 9 8 8 5 6 7 6 6 7 7 7 6
4 3 3 5 11 20 23 15 5 4 4 3 6 6 4 3 3 3 4 5 4 2 2 4 5 5 4 4 4 3 2 1 2 3 3 2 3 3 1 2 4 1 3 3 1 0 1 3 5 4 4 5 6 4 6 8 6 5 6 7 7 7 5 4 7 5 3 5 5 7 8 6 7 5 4 6 7 6 6 6 7 8 8 8 7 6 6 5
4 4 2 7 19 27 19 5 3 4 4 4 4 4 3 3 4 4 4 5 5 3 1 3 5 5 4 5 5 4 4 3 4 4 4 6 7 6 5 3 5 4 2 1 3 2 3 1 3 5 6 8 11 8 6 9 7 5 4 5 6 6 6 7 9 6 3 4 3 5 8 5 7 12 7 5 7 7 6 7 6 7 8 8 8 8 7 6
3 3 1 8 25 27 12 4 6 4 4 3 2 2 1 2 4 4 4 5 5 4 3 4 6 7 7 7 7 6 5 5 7 8 7 7 10 12 14 13 9 5 3 3 3 3 4 3 3 5 4 6 10 12 7 4 4 4 4 5 6 7 8 9 7 3 4 6 4 7 10 6 7 15 13 9 11 9 8 9 8 8 9 8 8 9 9 10
2 3 1 10 27 23 7 5 8 6 6 3 2 3 3 2 5 7 6 6 5 4 5 5 5 7 8 7 7 7 7 6 8 10 9 6 7 13 17 18 16 10 5 4 4 4 4 3 2 2 4 5 4 6 7 3 3 3 4 5 7 9 9 7 3 2 5 10 11 11 10 8 9 13 14 16 18 17 18 18 14 12 11 10 9 9 11 13
2 2 2 7 20 16 5 5 6 5 6 7 7 6 5 3 5 9 9 6 5 5 4 3 4 5 6 7 7 8 9 8 8 7 8 6 5 7 11 16 16 12 9 8 6 4 4 5 4 4 6 8 8 7 5 3 2 3 3 6 9 11 13 10 5 6 7 10 13 12 10 10 12 13 16 20 23 25 27 25 19 14 11 11 11 10 11 11
1 2 2 3 8 7 4 3 3 3 5 6 6 6 9 9 5 5 6 5 7 7 4 4 4 4 4 6 7 8 9 10 9 6 5 5 4 3 6 9 11 11 13 12 8 5 1 4 8 12 13 12 14 14 9 6 6 7 10 13 14 14 15 12 8 10 11 11 13 12 13 16 16 15 18 22 25 26 27 26 19 12 10 11 11 10 10 10
1 2 2 2 3 5 6 4 4 5 6 6 4 4 9 11 7 4 5 5 7 7 5 6 8 9 8 9 10 9 9 11 12 11 10 9 7 6 6 5 5 9 10 8 7 5 1 4 11 16 18 18 18 19 16 12 13 16 16 17 16 13 12 12 12 13 12 12 13 13 15 18 17 16 20 24 25 25 25 25 19 13 11 11 10 10 10 10
1 1 2 2 2 4 4 4 4 5 6 6 5 5 10 12 9 6 4 3 3 4 4 5 10 14 12 9 8 7 9 11 11 11 10 7 6 7 7 4 4 7 5 4 5 4 3 6 10 14 18 19 18 19 19 17 17 17 17 17 17 16 15 15 17 17 14 14 16 15 17 21 18 16 20 23 25 25 24 23 20 16 15 13 12 13 13 12
1 1 3 2 1 3 2 1 1 2 4 4 3 5 10 12 11 6 2 2 3 2 5 5 4 4 3 3 1 3 5 5 5 4 2 4 6 4 5 6 4 3 2 2 3 3 3 5 9 13 17 17 18 19 20 20 19 17 18 20 20 20 22 23 23 23 21 22 22 22 25 26 20 17 20 22 23 22 19 18 19 20 20 19 18 16 15 14
1 1 2 3 2 3 1 0 1 2 3 4 4 4 5 6 8 4 2 3 2 2 3 2 4 5 5 3 0 3 2 3 1 2 3 6 6 3 2 4 5 7 7 4 2 3 4 5 8 12 12 13 16 18 18 18 19 21 22 22 21 22 24 25 23 21 21 24 26 27 28 23 17 19 23 23 22 20 18 19 20 20 23 24 21 15 12 13
2 2 2 2 3 2 0 1 1 1 3 4 4 3 3 5 4 1 1 3 4 1 1 3 6 6 4 4 4 3 0 3 2 5 5 5 5 4 3 4 5 8 8 5 3 3 3 3 4 7 7 7 10 14 18 19 20 22 22 21 22 23 23 22 22 21 22 24 25 24 21 16 15 18 21 21 20 19 20 21 20 18 18 16 14 13 12 12
3 4 2 1 3 3 1 1 1 2 3 3 1 2 4 3 3 4 2 2 3 4 6 6 6 5 4 6 6 2 1 3 7 8 7 8 8 9 9 9 9 7 6 6 5 3 4 4 4 5 7 8 10 15 18 16 14 13 14 20 26 26 25 24 22 22 24 22 19 17 15 11 9 8 9 11 13 12 13 13 10 9 11 12 11 11 11 10
Wind_Direction
359 359 358 358 356 357 357 357 359 359 2 1 0 360 358 359 356 356 354 351 352 351 353 349 348 348 339 331 327 318 305 279 265 246 235 259 259 238 236 236 214 192 193 189 175 172 155 173 198 183 160 147 239 237 216 171 104 66 101 153 233 204 211 197 198 206 175 266 265 266 224 188 252 277 259 332 282 254 248 257 261 269 278 88 254 160 150 158
354 353 352 351 349 350 350 349 350 349 351 352 352 350 349 350 346 348 347 345 344 343 347 345 344 342 337 334 328 325 310 286 272 256 258 273 266 245 237 231 217 197 190 191 193 179 154 186 194 151 106 130 263 273 186 233 137 137 134 176 230 206 217 203 202 216 187 255 258 261 241 193 225 240 80 269 263 271 254 261 269 265 270 330 99 139 152 158
349 349 348 347 345 345 345 345 344 342 343 344 344 343 341 341 340 340 339 339 339 339 342 341 340 338 336 330 329 328 308 297 285 266 283 308 269 248 237 226 214 207 209 208 209 192 169 178 173 143 95 241 249 133 113 268 199 183 143 210 242 216 235 245 229 240 237 240 250 269 247 190 236 230 129 237 268 269 239 239 221 240 250 230 154 149 157 161
346 345 343 344 343 342 342 342 340 338 338 338 338 338 335 333 335 334 334 335 334 335 336 338 338 336 333 326 331 321 310 346 289 252 20 26 5 252 221 216 211 212 223 219 211 198 182 162 158 142 105 248 292 55 169 231 210 189 162 209 240 200 234 255 239 245 244 224 215 238 294 261 253 200 185 214 287 275 241 220 212 223 239 214 173 175 170 169
343 341 339 339 340 341 341 340 338 335 333 334 333 332 332 330 329 329 329 329 329 330 332 335 335 336 329 320 332 313 335 26 261 210 39 7 9 334 205 208 211 211 212 209 202 192 191 163 123 100 97 216 293 57 228 227 163 178 218 224 240 187 233 257 240 243 233 215 246 249 275 267 250 178 209 197 239 265 242 195 212 221 233 206 176 184 178 179
338 336 335 334 338 339 339 339 336 333 330 329 329 329 329 328 327 325 324 324 326 326 328 332 333 335 322 315 339 313 327 327 250 232 285 319 338 291 197 201 207 205 202 202 202 188 181 131 102 142 136 219 204 195 243 237 155 227 256 240 245 220 239 262 254 256 223 224 266 255 260 266 310 279 230 203 232 253 244 173 202 221 229 207 170 172 181 191
333 332 331 332 335 336 337 337 333 331 328 325 325 325 326 327 327 323 321 319 320 322 324 328 330 328 313 310 334 359 76 255 268 272 280 290 289 244 193 199 200 201 201 199 200 185 151 115 154 178 139 286 225 209 247 273 169 220 259 255 250 230 235 257 269 287 285 248 252 277 311 272 257 272 273 241 247 253 253 201 207 225 229 194 161 177 189 196
331 329 329 332 333 333 335 333 331 328 324 322 320 321 322 323 324 321 319 316 314 317 318 323 329 326 308 292 325 358 357 257 274 283 278 274 250 216 196 197 196 202 200 204 205 184 153 147 186 174 149 255 207 201 254 319 193 215 242 254 260 245 244 262 274 278 273 256 251 295 288 247 229 266 315 266 263 265 248 226 232 229 222 185 181 195 196 202
330 328 329 331 332 334 334 332 330 326 322 319 316 317 317 317 317 316 314 311 310 311 311 319 322 313 287 279 81 354 273 253 270 275 270 257 234 213 203 201 199 202 201 212 209 184 174 184 209 195 193 228 188 211 236 238 244 217 228 256 274 278 277 279 275 266 264 254 198 248 270 255 227 269 288 262 265 275 236 223 237 220 222 214 205 204 199 207
331 329 329 333 337 338 337 334 330 326 322 319 316 315 313 313 312 309 307 304 304 303 303 311 310 292 256 214 100 271 268 270 270 262 259 243 228 213 209 208 203 203 202 209 202 185 182 192 197 166 172 205 192 223 195 189 228 214 229 273 266 274 284 263 253 265 274 252 194 214 263 268 239 196 266 265 266 272 221 233 241 222 231 231 223 219 208 211
330 328 328 335 342 341 338 334 331 327 323 321 318 315 314 314 311 308 304 299 297 296 292 295 296 273 234 177 158 231 269 280 269 261 252 239 228 220 218 216 211 209 206 201 201 201 203 198 161 120 180 211 199 247 232 206 221 259 295 310 285 292 295 265 252 261 263 256 205 195 257 278 6 195 242 260 269 81 233 257 255 234 241 240 233 232 218 218
327 327 330 337 340 339 337 333 332 329 325 323 317 315 316 314 313 310 304 298 295 293 282 280 277 246 221 193 215 239 259 266 268 266 252 239 229 227 225 221 221 220 216 212 214 212 213 202 153 145 222 186 217 278 241 222 97 295 35 329 293 328 309 277 268 240 187 231 194 155 269 280 205 227 239 252 263 334 291 278 267 246 244 247 243 238 227 230
323 328 331 332 335 336 334 332 333 330 325 322 316 314 314 311 313 309 303 297 294 293 279 270 259 222 191 255 240 244 255 258 261 260 249 238 229 227 224 222 226 229 228 226 222 205 200 198 168 174 210 158 240 256 195 4 20 289 44 339 289 340 303 277 294 166 183 206 174 134 276 269 230 236 244 254 262 282 281 273 270 262 252 249 247 244 239 236
326 332 331 330 334 335 333 333 333 329 324 319 314 312 310 310 309 302 297 291 291 294 281 261 225 184 164 254 259 254 255 252 248 247 243 234 224 224 224 222 226 230 235 237 232 211 183 183 155 144 233 173 242 297 336 352 355 289 314 229 282 311 272 279 78 121 203 215 170 143 239 264 262 251 247 256 249 229 252 262 265 267 264 256 250 247 248 242
331 333 333 334 336 337 337 336 333 329 324 318 313 311 310 310 304 295 288 284 288 283 263 216 181 156 117 270 266 262 252 245 245 245 242 233 220 219 225 220 224 230 231 234 236 226 169 149 127 137 263 266 301 310 320 337 345 3 238 265 271 196 261 296 312 176 216 251 159 152 222 260 269 265 255 252 211 195 233 254 260 266 267 263 260 251 251 252
330 333 337 339 341 344 343 341 338 333 326 319 313 311 310 307 298 291 285 281 284 262 217 179 183 164 88 271 268 266 241 234 247 247 236 230 224 222 221 209 209 204 191 195 163 141 141 124 108 159 180 283 213 154 24 349 316 310 206 244 254 216 256 308 299 227 205 213 176 202 229 259 266 266 267 259 200 194 224 253 259 263 266 264 266 260 255 259
330 336 341 343 347 351 351 349 344 336 329 322 318 314 309 303 292 290 286 273 282 199 164 154 175 165 271 263 274 272 237 232 244 241 223 220 220 218 203 174 160 141 120 98 119 115 93 103 133 218 26 275 178 111 61 281 266 270 195 232 249 233 226 277 294 287 182 173 211 226 230 246 257 263 270 261 190 187 217 251 260 261 268 269 267 266 261 259
333 338 341 344 350 354 354 351 346 343 337 330 327 319 310 305 290 298 182 141 100 111 137 98 127 148 266 248 245 256 232 228 230 220 211 206 206 207 190 151 122 113 94 53 85 100 19 17 103 64 304 256 184 128 189 233 240 236 209 226 255 243 233 242 266 279 158 210 221 228 238 244 256 266 270 264 234 232 241 247 261 265 266 267 266 267 264 260
336 340 342 344 349 353 354 353 351 353 345 339 339 327 318 24 77 83 113 130 107 112 171 227 168 159 252 241 241 252 230 197 194 199 196 186 189 189 169 130 110 109 106 69 269 184 140 56 68 137 230 236 212 177 210 231 236 237 228 221 234 247 244 241 253 249 214 252 237 230 246 246 253 259 262 266 259 258 261 257 261 264 263 263 262 264 264 263
337 338 339 343 348 353 355 357 358 359 352 347 348 344 41 53 47 43 35 216 220 223 248 215 200 219 274 262 221 214 212 187 188 193 181 175 167 158 151 78 81 83 135 160 211 223 149 140 165 200 219 228 214 198 218 235 246 258 258 248 243 251 263 255 264 265 203 229 246 232 247 252 250 254 256 263 266 260 262 262 259 257 257 258 258 260 262 262
326 328 333 340 346 352 356 357 360 360 355 354 1 18 102 43 330 310 319 290 262 256 267 242 219 239 257 249 203 188 182 199 222 196 176 174 152 148 198 122 118 205 187 161 187 252 140 175 209 219 221 224 217 209 224 237 248 254 249 260 263 252 263 260 264 274 223 195 256 246 254 258 251 254 256 259 265 261 257 256 258 256 252 253 256 259 260 262
305 311 321 330 339 349 353 354 357 357 355 9 31 61 108 44 107 359 304 289 283 259 248 249 238 249 253 251 241 207 177 248 249 214 173 170 155 173 206 141 167 204 158 153 224 226 180 212 226 226 224 231 232 208 221 236 234 239 240 259 267 254 270 268 254 266 248 176 260 260 260 262 253 254 255 255 257 256 253 250 253 256 253 251 250 254 260 262
290 299 307 315 331 341 347 349 353 357 1 26 49 69 66 25 91 71 89 253 292 267 232 239 231 233 243 252 247 211 223 240 242 228 178 167 168 192 167 159 186 168 143 188 209 210 214 228 231 229 218 226 246 226 215 251 245 221 220 242 258 248 262 266 245 262 260 196 258 272 269 267 260 259 253 248 250 251 256 254 253 254 248 249 248 251 259 261
281 290 295 302 318 330 341 341 345 0 5 43 54 46 34 25 94 60 12 242 284 273 247 228 213 218 230 247 225 197 222 230 227 231 177 165 152 155 177 173 166 165 199 209 214 227 239 237 226 217 204 209 233 236 212 251 261 223 204 220 249 245 240 251 269 311 299 258 260 280 284 275 243 246 249 242 247 251 255 256 258 254 243 247 254 254 255 258
279 282 285 293 303 317 332 329 338 359 359 78 43 15 19 20 49 73 6 318 289 283 278 234 196 228 231 211 174 178 210 234 228 206 170 171 163 147 203 174 161 216 217 216 227 244 251 235 173 178 199 206 219 231 208 214 255 252 202 211 237 245 245 255 281 322 312 282 277 277 290 284 206 215 243 244 248 250 249 250 253 254 248 246 253 255 251 253
276 278 280 284 288 307 328 324 334 348 353 124 6 353 358 360 355 240 57 11 291 270 294 231 176 206 216 167 158 145 91 270 260 126 159 182 181 153 194 180 201 236 207 205 236 250 249 218 182 184 194 198 205 234 218 199 242 273 219 210 231 244 250 254 266 290 263 262 280 111 269 283 257 206 234 240 241 244 246 246 247 250 250 242 245 252 252 253
267 269 272 275 278 293 315 310 323 338 347 327 345 350 350 352 357 274 46 3 291 227 141 250 308 105 172 187 171 135 164 270 12 62 110 167 210 156 212 204 208 249 164 142 273 240 204 204 204 204 193 180 192 233 221 185 214 268 218 195 216 231 237 223 213 222 232 280 287 148 151 273 281 242 205 221 229 236 244 246 247 249 248 244 244 250 253 253
266 261 260 263 265 266 267 281 307 326 308 322 346 350 350 352 339 82 54 323 282 134 114 267 360 52 4 332 341 117 188 291 61 329 342 58 73 85 233 228 190 236 164 145 247 247 152 190 213 199 184 188 206 224 197 164 202 254 165 161 178 194 204 156 158 205 278 337 289 205 136 262 282 258 184 214 220 222 237 239 243 244 243 245 244 250 257 261
274 267 260 256 253 253 253 257 268 282 291 316 348 343 335 318 296 71 74 265 277 61 49 318 60 328 357 42 296 48 19 353 89 268 326 75 87 89 200 234 172 248 269 179 235 264 164 197 198 170 174 214 222 227 175 168 206 238 111 100 70 75 83 97 136 139 52 308 266 203 153 225 283 284 140 185 206 216 232 235 242 242 241 249 251 255 259 265
275 275 273 258 231 234 238 242 251 256 282 298 336 345 328 282 335 72 228 243 316 324 243 16 313 324 59 101 297 321 328 302 323 330 3 81 346 31 180 221 125 222 278 262 255 258 239 171 154 167 189 204 192 171 171 180 199 97 92 55 25 14 27 49 31 79 52 280 243 183 180 190 275 293 138 172 208 217 224 228 247 252 254 259 255 256 259 258
268 272 273 258 226 225 220 236 257 239 224 260 2 17 353 331 77 159 233 238 26 291 211 32 324 52 78 133 259 301 239 283 277 132 151 180 10 25 64 285 75 73 312 291 275 265 254 237 204 207 180 139 123 126 352 10 98 97 101 64 15 330 3 23 352 54 188 262 232 187 184 182 233 259 199 234 253 222 212 220 233 242 250 256 253 253 257 255
263 265 266 261 244 230 219 237 266 207 206 220 60 49 52 47 219 216 242 360 6 252 163 177 199 127 149 144 245 250 197 274 236 154 175 174 167 178 195 206 171 52 296 247 272 302 268 228 204 188 180 154 140 160 334 353 55 115 123 125 320 301 337 349 313 10 221 257 239 185 174 205 240 246 237 263 271 236 209 217 224 227 235 246 254 254 257 264
270 266 260 258 248 232 230 244 249 210 199 169 95 59 84 159 239 216 225 308 236 217 141 149 142 143 138 103 256 232 182 237 205 168 188 152 167 240 251 226 173 180 261 222 304 322 286 268 172 143 255 186 153 175 234 277 178 162 160 160 172 211 243 256 269 274 258 269 270 170 164 248 278 262 223 235 253 241 207 214 226 226 234 243 254 261 267 278
278 269 257 255 249 242 243 242 235 217 185 138 105 69 103 221 244 141 179 234 257 314 323 89 63 111 150 194 237 202 208 245 177 156 199 131 139 255 260 241 199 185 229 214 282 214 256 286 194 162 228 181 174 203 204 160 165 189 164 143 179 191 178 196 228 251 260 282 306 228 179 223 267 269 225 221 248 263 215 224 239 248 260 263 270 275 269 271
281 270 257 249 243 242 240 233 226 208 170 128 92 108 186 231 245 129 205 225 266 299 297 330 37 310 255 260 254 216 218 246 146 136 186 164 181 213 205 211 203 191 160 196 246 170 220 269 243 181 173 160 180 211 184 120 112 232 120 114 221 204 171 210 245 237 242 297 292 239 219 233 245 270 262 248 268 276 256 255 261 259 259 259 263 261 259 270
288 282 257 233 232 234 230 225 215 190 164 125 99 197 219 231 200 179 216 206 186 200 312 326 328 236 269 269 269 266 231 231 177 153 204 199 207 214 212 213 195 186 180 189 220 206 232 269 273 252 260 178 184 210 171 154 201 189 125 185 219 171 157 220 269 280 121 261 261 237 251 277 306 284 270 249 256 262 269 267 247 246 253 257 262 262 270 298
301 288 247 224 229 230 225 221 200 178 162 135 188 217 225 223 191 189 206 227 211 115 68 312 259 234 262 264 271 288 280 251 203 180 216 221 236 214 209 232 197 189 200 210 227 231 238 266 254 191 235 277 339 13 355 7 135 127 175 215 185 101 138 169 243 315 261 251 262 265 265 276 301 284 303 6 293 272 268 264 253 263 273 271 271 274 280 293
308 278 252 246 243 231 221 209 186 167 150 162 218 232 221 205 207 194 184 184 268 64 98 232 250 252 249 260 275 269 257 256 192 186 211 213 230 194 178 230 218 193 214 225 253 277 244 261 272 194 201 297 7 38 328 344 87 136 209 232 109 161 246 161 179 222 235 245 256 261 267 273 250 254 287 299 277 278 280 291 308 289 272 266 271 276 275 272
294 271 268 257 242 228 210 191 172 158 155 187 222 234 211 206 224 200 183 169 157 161 211 221 225 241 244 248 262 259 246 235 192 209 227 218 238 211 147 256 16 37 247 194 209 291 2 266 271 348 17 320 13 103 209 273 356 49 304 324 64 187 199 182 187 179 220 245 253 247 257 271 252 232 233 241 246 257 267 284 290 263 248 245 244 260 275 269
231 248 267 223 208 203 188 173 158 166 200 200 224 227 203 229 239 221 204 189 181 195 219 217 211 227 241 244 241 235 252 246 196 240 247 242 287 313 340 56 104 336 318 141 178 264 23 265 257 305 339 296 262 203 187 189 199 196 235 250 248 231 202 237 240 177 203 242 254 253 250 262 265 222 220 249 240 216 221 252 293 291 277 256 238 240 261 264
202 236 248 199 184 174 164 157 161 200 206 230 240 231 235 240 237 248 225 205 215 223 187 190 203 215 226 238 224 185 185 221 186 221 250 260 281 282 273 128 125 26 357 48 39 345 93 266 269 282 277 256 261 238 185 199 212 196 205 218 220 224 228 257 250 213 200 237 246 260 257 260 281 270 224 249 249 225 231 262 297 303 291 281 273 261 255 256
216 221 207 188 177 162 151 166 215 187 208 233 235 231 227 223 224 232 224 209 211 215 200 198 209 213 206 225 229 205 211 218 197 211 227 222 224 227 236 218 153 126 91 241 255 212 144 163 258 261 255 260 283 289 223 215 237 242 228 224 228 228 214 234 250 237 238 273 292 281 267 252 275 275 261 244 254 255 252 247 253 271 274 278 287 290 286 271
217 232 202 183 178 164 151 220 208 200 228 225 266 264 205 208 232 225 214 209 202 200 218 215 211 220 221 221 224 220 223 219 204 210 223 222 220 221 229 235 223 195 179 216 231 196 142 133 225 254 273 274 287 298 282 218 208 254 250 221 223 232 224 234 253 246 241 259 265 267 262 241 249 264 267 269 267 262 258 247 237 252 265 263 268 282 284 273
258 268 302 191 184 175 172 217 202 217 226 218 269 251 242 235 224 229 224 202 188 192 213 217 212 223 226 218 217 212 208 219 221 218 221 223 221 221 224 231 235 230 215 205 201 203 202 174 170 231 277 277 279 296 290 253 186 218 232 227 228 232 242 259 280 236 232 239 236 245 257 246 241 256 268 278 279 275 271 266 259 264 272 270 266 264 263 265
309 256 283 204 191 189 213 225 212 218 214 224 233 227 246 252 221 233 236 218 201 194 206 237 229 226 220 214 228 223 206 220 240 228 216 226 248 243 229 228 232 230 226 217 190 181 217 191 166 217 249 259 260 255 247 231 212 213 220 237 234 224 232 245 253 245 242 236 233 239 253 253 251 259 267 272 273 272 272 270 267 268 270 271 270 262 258 260
298 246 263 216 202 213 246 241 226 214 206 227 231 217 228 239 243 226 212 223 232 217 222 252 251 256 229 211 234 242 226 231 242 236 231 240 257 269 238 229 232 233 232 223 188 154 208 198 201 225 234 242 252 252 235 205 219 238 237 235 234 227 226 230 235 240 244 246 243 238 245 253 253 255 260 263 264 267 270 271 271 272 272 272 268 258 253 255
231 257 223 196 218 229 233 232 221 212 211 217 214 215 231 240 256 237 202 223 232 216 224 240 232 234 230 225 237 242 237 237 237 239 244 243 247 271 265 239 241 252 250 235 194 164 180 226 218 228 236 239 246 252 250 240 240 246 245 241 241 239 232 231 238 242 246 256 253 241 243 253 253 249 253 258 262 264 268 273 277 277 274 271 266 262 258 254
233 268 262 278 252 225 227 237 235 235 240 228 207 228 242 242 241 230 227 268 254 207 213 235 228 229 238 252 255 252 246 241 242 245 247 258 286 300 295 281 263 264 264 243 212 182 197 239 232 234 242 243 244 250 253 252 251 250 250 250 248 248 248 246 247 248 246 251 256 254 251 254 252 248 250 255 259 260 265 273 280 282 280 274 267 269 270 268
298 274 290 332 288 254 296 353 322 289 260 253 240 230 239 245 242 230 203 316 306 240 225 245 246 248 301 341 347 300 278 253 258 274 326 348 329 317 313 308 303 308 307 271 246 215 213 233 231 239 249 248 244 246 248 250 255 255 251 249 248 250 252 252 252 254 252 253 258 259 256 255 255 253 253 254 258 262 266 272 279 283 285 281 274 273 281 290
306 268 301 346 292 271 321 317 284 304 257 248 246 222 214 232 239 233 161 195 248 271 247 288 355 6 1 13 7 282 274 128 148 285 341 342 326 329 331 313 331 341 329 310 282 260 245 228 228 243 255 249 245 249 247 245 247 249 248 246 247 250 252 254 256 257 257 256 256 254 255 256 256 255 256 256 259 264 268 270 274 278 282 286 293 306 321 328
306 321 317 309 279 269 299 260 267 280 251 235 228 228 228 229 234 327 302 222 217 224 65 32 2 348 331 314 311 299 139 122 215 249 257 272 276 279 280 274 298 318 314 299 290 284 270 256 253 261 265 252 245 251 252 249 246 246 247 248 247 246 245 247 247 246 248 253 255 256 257 257 255 258 261 264 269 271 271 275 279 285 295 309 328 350 4 1
330 330 330 292 276 269 261 325 321 230 243 242 236 278 266 263 32 39 305 255 137 117 78 48 357 337 325 305 309 325 320 264 259 256 245 234 238 244 244 242 242 251 269 281 281 261 243 257 272 266 268 267 257 254 256 256 248 241 236 235 239 242 243 244 245 246 247 251 255 256 257 267 286 306 313 313 313 307 298 299 306 321 341 356 2 3 4 1